World > North America > United States > California
Hourly regional weather for La Jolla, CaliforniaLa Jolla, California Regional Hourly Weather

La Jolla, California Regional Weather

regional weather la jolla, caHOURLY REGIONAL WEATHER FOR LA JOLLA, CA
Lat: 32.85N, Lon: 117.27W 
Web Search

Helpful Tip: Type the letters wx in the search engine next time you need to find us.

Feedback


°F Click to change La Jolla hourly weather to Imperial units.Click to change La Jolla hourly weather to Metric units. °C
La Jolla Weather Map
UTC Time: 12/2/2021, 19:03
Your Time:

La Jolla, CA Regional Weather

Expires:202112021900;;787837
ASUS46 KSGX 021811
RWRSGX

SAN DIEGO HOURLY WEATHER ROUNDUP
NATIONAL WEATHER SERVICE SAN DIEGO CA
1000 AM PST THU DEC 02 2021

NOTE: "FAIR" INDICATES FEW OR NO CLOUDS BELOW 12,000 FEET WITH NO 
SIGNIFICANT WEATHER AND/OR OBSTRUCTIONS TO VISIBILITY.


CAZ042-043-060-061-PZZ750-775-021900-

GREATER SAN DIEGO AREA
  
CITY           SKY/WX    TMP DP  RH WIND       PRES   REMARKS
SAN DIEGO AP   PTSUNNY   59  53  80 CALM      30.16S                  
BROWN FIELD    FOG       53  53 100 NW5       30.14S VSB 1            
MIRAMAR MCAS   CLOUDY    54  54 100 W3        30.14F FOG              
MONTGOMERY FLD MOSUNNY   60  54  80 CALM      30.14F FOG              
GILLESPIE FLD  SUNNY     54  52  94 CALM      30.15F                  
LEMON GROVE      N/A     56  55  97 CALM      30.12F                  

$$

NORTH SAN DIEGO COUNTY
  
CITY           SKY/WX    TMP DP  RH WIND       PRES   REMARKS
OCEANSIDE AP   CLOUDY    54  54 100 N3        30.14F FOG              
OCEANSIDE HBR    N/A     55  54  97 N3        30.21F                  
VISTA            N/A     52  48  84 CALM      30.13S                  
CARLSBAD       CLOUDY    56  52  86 VRB3      30.13F FOG              
ENCINITAS        N/A     55  54  98 E1          N/A                   
LA JOLLA SCRIP   N/A     58  53  82 CALM      30.14F                  
FALLBROOK      FAIR      59  52  77 CALM      30.15S                  
ESCONDIDO        N/A     64  50  61 W3        30.12F                  
SAN MARCOS       N/A     59  53  79 CALM      30.17S                  
RANCHO BERNARD   N/A     55  52  90 SW3       30.13F                  
POWAY            N/A     60  51  73 SW1       30.16F                  

$$

EAST SAN DIEGO COUNTY
  
CITY           SKY/WX    TMP DP  RH WIND       PRES   REMARKS
RAMONA         SUNNY     73  27  18 W5        30.13F                  
SANTEE           N/A     56  55  96 CALM      30.10F                  
LA MESA          N/A     54  53  96 CALM      30.09S                  
EL CAJON         N/A     56  54  92 N1        30.01F                  
ALPINE           N/A     69  33  25 S2        30.29F                  

$$

ORANGE COUNTY AND THE LOS ANGELES BASIN
  
CITY           SKY/WX    TMP DP  RH WIND       PRES   REMARKS
JOHN WAYNE AP  CLOUDY    58  51  78 VRB3      30.15S HAZE             
LAGUNA BEACH     N/A     57  55  91 N1        30.14S                  
LAKE FOREST FR   N/A     55  48  80 NE2       30.02S                  
SANTA ANA        N/A     54  53  95 CALM      30.15S                  
HUNTINGTON BCH   N/A     55  54  95 CALM      30.15S                  
LOS ALAMITOS   CLOUDY    54  54 100 CALM      30.15S FOG              
FULLERTON      CLOUDY    56  52  86 S5        30.15R FOG              
LONG BEACH     CLOUDY    54  53  97 E5        30.15S FOG              
L.A. AP        PTSUNNY   59  52  77 CALM      30.15S HAZE             
L.A. DOWNTOWN  CLOUDY    54  50  86 CALM      30.15S FOG              

$$

THE INLAND EMPIRE
  
CITY           SKY/WX    TMP DP  RH WIND       PRES   REMARKS
CORONA         SUNNY     56  49  77 W5        30.14F                  
UPLAND AP      FAIR      66  30  26 SW3       30.14R                  
CHINO          MOSUNNY   62  44  51 CALM      30.14F HAZE             
ONTARIO        MOSUNNY   62  37  39 CALM      30.13S                  
RIVERSIDE AP   SUNNY     62  32  32 W5        30.13F                  
MORENO VALLEY    N/A     72  35  26 CALM      30.07S                  
MARCH ARB      SUNNY     69  24  18 CALM      30.13S                  
HORSETHIEF CYN   N/A     71  29  21 CALM      30.09S                  
PERRIS           N/A     69  27  21 CALM        N/A                   
LAKE ELSINORE    N/A     66  35  30 CALM      30.06S                  
HEMET AP       FAIR      70  29  21 CALM      30.13F                  
FRENCH VALLEY  FAIR      64  32  29 CALM      30.14S                  
TEMECULA         N/A     60  39  44 CALM      30.09F                  

$$

SAN BERNARDINO AND RIVERSIDE COUNTY MOUNTAINS
  
CITY           SKY/WX    TMP DP  RH WIND       PRES   REMARKS
BIG BEAR AP    SUNNY     52  18  25 CALM      30.34S                  
BIG BEAR LAKE    N/A     53  30  41 CALM      30.29F                  
WRIGHTWOOD       N/A     56  16  21 CALM      30.14S                  
ANGELUS OAKS     N/A     55  30  39 CALM        N/A                   
IDYLLWILD        N/A     62  31  31 CALM      30.08F                  
TORO PEAK        N/A     43  25  49 SW3         N/A                   

$$

SOUTHERN DESERT INCLUDING THE COACHELLA VALLEY
  
CITY           SKY/WX    TMP DP  RH WIND       PRES   REMARKS
PALM SPRINGS   SUNNY     79  27  14 CALM      30.10F                  
THOUSAND PALMS   N/A     76  32  20 S1        30.04S                  
INDIO            N/A     74  34  23 NW1       30.07S                  
THERMAL        SUNNY     75  31  19 NE3       30.07S                  
BORREGO AP     FAIR      73  21  14 CALM      30.09F                  
OCOTILLO WELLS   N/A     81  26  13 W1        30.01S                  
CANEBRAKE        N/A     78  17  10 CALM      30.04F                  
BLYTHE         SUNNY     69  16  13 S3        30.12S                  
IMPERIAL AP    SUNNY     71  28  20 CALM      30.08S                  
EL CENTRO NAS  MOSUNNY   76  24  14 CALM      30.10S                  
YUMA AZ        MOSUNNY   74  24  15 NE6       30.09F                  

$$

UPPER DESERT
  
CITY           SKY/WX    TMP DP  RH WIND       PRES   REMARKS
VICTORVILLE AP SUNNY     59  14  17 CALM      30.24S                  
HESPERIA         N/A     64  23  21 E3        29.99S                  
APPLE VALLEY     N/A     63  24  23 S1        30.26F                  
PALMDALE       SUNNY     57  18  21 NE3       30.21S                  
LANCASTER      SUNNY     55  16  21 CALM      30.22S                  
EDWARDS AFB    MOSUNNY   51  13  22 CALM      30.19S                  
DAGGETT        SUNNY     63  14  15 W7        30.19S                  
29 PALMS N     SUNNY     63  10  12 N3        30.24F                  
29 PALMS JTNP    N/A     65  19  17 CALM      30.10S                  
NEEDLES        SUNNY     71  22  15 NW8       30.16S                  

$$

REGIONAL REPORTS
  
CITY           SKY/WX    TMP DP  RH WIND       PRES   REMARKS
SANTA BARBARA  CLOUDY    52  51  97 CALM      30.14S FOG              
SANDBERG       SUNNY     68  14  12 NE6       30.26R                  
LAS VEGAS NV   PTSUNNY   63  22  20 CALM      30.20S                  
PHOENIX AZ     MOSUNNY   75  26  16 E8        30.11S                  
TIJUANA        SUNNY     57  57 100 CALM      30.17S FOG              
ENSENADA NW      N/A     60  32  35 SW6       30.12R                  

$$

OFFSHORE ISLANDS
  
CITY           SKY/WX    TMP DP  RH WIND       PRES   REMARKS
CATALINA ARPT  SUNNY     69  40  34 CALM      30.15S                  
SAN CLEMENTE I CLOUDY    58  54  86 W5        30.17R                  
SAN NICOLAS IS PTSUNNY   55  51  86 SW6       30.15R FOG              

$$

MARINE AND OFFSHORE BUOY REPORTS
  
STATION/POSITION SKY/WX   TEMP    WIND        PRES    VSBY  SWELL
                          AIR SEA DIR/SP/G                  HT/PER/DIR
                          (F)     (DEG/KT/KT) (MB)    (MI)  (FT/S/D)
TANNER BANKS               58 63  210/  4/  8 1020.2R         5/280/13
S CLEMENTE BASIN           59 64   CALM  /  2 1020.7R         3/290/13
SAN NICOLAS IS.               62                N/A           5/280/12
SO. S. ROSA ISLA                                N/A
W. S. BARBARA CH              60   CALM  /  4 1020.3R         5/300/12
M. S. BARBARA CH           53 59  350/  2/  2 1021.4R         3/270/13
S. MONICA BASIN            55 61  270/  2/  4 1020.8R         3/260/13
S PEDR
43a
O CHANNEL               62                N/A           2/260/13
OCEANSIDE OFFSHR              63                N/A           2/230/12
TORREY PINES OTR              64                N/A           2/260/12
SAN DIEGO BAY                 63              1020.7
IMPERIAL BEACH             58 63                N/A           2/270/11

$$

  

SKY/WX - Weather  TMP - Temperature  DP - Dew Point  RH - Relative Humidity
WIND - Wind Direction/Speed PRES - Barometric Pressure VSB - Visibility
WCI - Wind Chill Index E13G22 Wind - East Wind 13 mph/Gusts of 22 mph